This demonstration page uses our WeatherBlox Daily Observations layout. Learn more.

Left ArrowRight Arrow

44.89941, -97.11507

Hourly Observations for January 26, 2021

Temp ( °F °C ) Dew Point ( °F °C ) Humidity (%) Winds ( mph kmh ) Pressure ( in mb ) Visibility ( mi km ) Precip ( " mm )
12:53 am 00:53 Cloudy 10 -12.2 3 -16.1 73 73 NNE 13 20 30.15 1021 10 16 0.00 0.00
1:53 am 01:53 Cloudy 10 -12.2 3 -16.1 73 73 NNE 12 19 30.14 1021 10 16 0.00 0.00
2:53 am 02:53 Cloudy 8 -13.3 2 -16.7 76 76 NNE 13 20 30.16 1021 10 16 0.00 0.00
3:53 am 03:53 Cloudy 8 -13.3 2 -16.7 76 76 NNE 15 24 30.16 1021 10 16 0.00 0.00
4:53 am 04:53 Cloudy 7 -13.9 3 -16.1 84 84 NNE 10 17 30.16 1022 10 16 0.00 0.00
5:53 am 05:53 Cloudy 7 -13.9 3 -16.1 84 84 NE 10 17 30.17 1022 10 16 0.00 0.00
6:53 am 06:53 Cloudy 8 -13.3 1 -17.2 73 73 NNE 7 11 30.19 1022 10 16 0.00 0.00
7:53 am 07:53 Cloudy 8 -13.3 1 -17.2 73 73 NNE 9 15 30.22 1023 10 16 0.00 0.00
8:53 am 08:53 Cloudy 9 -12.8 2 -16.7 73 73 NNE 9 15 30.24 1024 10 16 0.00 0.00
9:53 am 09:53 Cloudy 10 -12.2 4 -15.6 76 76 NE 8 13 30.25 1025 10 16 0.00 0.00
10:53 am 10:53 Cloudy 10 -12.2 5 -15 80 80 NNE 7 11 30.27 1025 10 16 0.00 0.00
11:53 am 11:53 Cloudy 12 -11.1 5 -15 73 73 NE 8 13 30.28 1025 10 16 0.00 0.00
12:53 pm 12:53 Cloudy 13 -10.6 6 -14.4 74 74 NE 8 13 30.26 1025 10 16 0.00 0.00
1:53 pm 13:53 Cloudy 14 -10 7 -13.9 73 73 NNE 8 13 30.25 1024 10 16 0.00 0.00
2:53 pm 14:53 Cloudy 14 -10 8 -13.3 77 77 ENE 3 6 30.27 1025 10 16 0.00 0.00
3:53 pm 15:53 Cloudy 14 -10 7 -13.9 73 73 ENE 6 9 30.29 1026 10 16 0.00 0.00
4:53 pm 16:53 Cloudy 12 -11.1 6 -14.4 77 77 NE 8 13 30.31 1026 10 16 0.00 0.00
5:53 pm 17:53 Cloudy 10 -12.2 5 -15 80 80 NE 6 9 30.33 1027 10 16 0.00 0.00
6:53 pm 18:53 Cloudy 8 -13.3 4 -15.6 83 83 NNE 7 11 30.35 1028 10 16 0.00 0.00
7:53 pm 19:53 Cloudy 8 -13.3 4 -15.6 83 83 NE 7 11 30.35 1028 10 16 0.00 0.00
8:53 pm 20:53 Cloudy 8 -13.3 4 -15.6 83 83 ENE 5 7 30.36 1028 10 16 0.00 0.00
9:53 pm 21:53 Cloudy 8 -13.3 4 -15.6 83 83 NNE 3 6 30.37 1028 10 16 0.00 0.00
10:53 pm 22:53 Cloudy 8 -13.3 3 -16.1 80 80 NE 5 7 30.38 1029 10 16 0.00 0.00
11:53 pm 23:53 Cloudy 9 -12.8 2 -16.7 73 73 NE 5 7 30.39 1029 10 16 0.00 0.00

Powered by AerisWeather